Hourly Data Report for August 28, 2018

TORONTO CITY
ONTARIO
Current Station Operator: ECCC - MSC

43°40'00.000" N
79°24'00.000" W
112.50 m
6158355
71508
XTO

Download Data

Hourly Data (August 2018)
Hourly Data Report for August 28, 2018
TIME
LST
Temp Definition
°C
Dew Point Definition
°C
Rel Hum Definition
%
Precip. Amount Definition
mm

Wind Dir Definition
10's deg

Wind Spd Definition
km/h
Visibility Definition
km
Stn Press Definition
kPa
Hmdx Definition


Wind Chill Definition


Weather Definition


00:00 24.8 20.9 79 0.0 LegendMM LegendMM   100.05 33   LegendNANA
01:00 24.6 20.7 79 0.0 LegendMM LegendMM   100.02 33   LegendNANA
02:00 24.6 20.7 79 0.0 LegendMM LegendMM   100.01 33   LegendNANA
03:00 23.8 20.2 80 0.0 LegendMM LegendMM   99.96 32   LegendNANA
04:00 23.4 20.2 82 0.0 LegendMM LegendMM   99.93 31   LegendNANA
05:00 23.5 20.4 83 0.0 LegendMM LegendMM   99.94 31   LegendNANA
06:00 23.3 20.2 83 0.0 LegendMM LegendMM   99.97 31   LegendNANA
07:00 23.7 20.2 81 0.0 LegendMM LegendMM   100.01 31   LegendNANA
08:00 24.4 20.2 77 0.0 LegendMM LegendMM   99.99 32   LegendNANA
09:00 25.9 20.4 72 0.0 LegendMM LegendMM   99.95 34   LegendNANA
10:00 25.8 19.7 69 0.0 LegendMM LegendMM   99.75 33   LegendNANA
11:00 27.9 20.8 65 0.0 LegendMM LegendMM   99.88 36   LegendNANA
12:00 29.7 20.7 59 0.0 LegendMM LegendMM   99.94 38   LegendNANA
13:00 30.5 20.5 55 0.0 LegendMM LegendMM   100.00 38   LegendNANA
14:00 31.2 19.1 49 0.0 LegendMM LegendMM   99.98 38   LegendNANA
15:00 32.0 18.1 44 0.0 LegendMM LegendMM   99.95 38   LegendNANA
16:00 31.5 18.6 46 0.0 LegendMM LegendMM   99.94 38   LegendNANA
17:00 31.0 17.7 45 0.0 LegendMM LegendMM   99.94 37   LegendNANA
18:00 29.0 19.7 57 0.0 LegendMM LegendMM   99.95 36   LegendNANA
19:00 29.1 18.5 53 0.0 LegendMM LegendMM   100.02 35   LegendNANA
20:00 27.6 18.6 58 0.0 LegendMM LegendMM   100.07 34   LegendNANA
21:00 26.6 18.9 63 0.0 LegendMM LegendMM   100.07 33   LegendNANA
22:00 25.6 18.9 67 0.0 LegendMM LegendMM   100.01 32   LegendNANA
23:00 25.4 21.0 76 0.0 LegendMM LegendMM   100.01 34   LegendNANA

Notes on Data Quality.

Legend

  • E = Estimated
  • M = Missing
  • NA = Not Available*
  • [empty] = Indicates an unobserved value
Date modified: